Individual YR Submissions

/Individual YR Submissions

Individual YR Submissions



Showing results for Kenneth Petersen
Year Rounder submissions are verified and standings are posted monthly. Questions? Contact the Year Rounder team.
2017 Submissions
(Rides that have a "Y" in the standings column are included in the current standings. Verified rides not in the current standings will be included next time.)

Standings were last generated on
2018-08-16 14:57:05.
# event date event name distance (unit) elevation (unit) ride type bike type verified standings
12017-01-01NYD Ride w/SWCC100.40 miles0 feetpersonalstandard2017-07-28YY
32017-01-03Bellville Ride w/SWCC92.10 miles0 feetpersonalstandard2017-07-28YY
42017-01-08Solo Sunday Century105.50 miles0 feetpersonalstandard2017-07-28YY
52017-01-29Solo Sunday Century106.50 miles0 feetpersonalstandard2017-07-28YY
62017-02-04Pedaling the Praire141.40 miles0 feetpersonalstandard2017-07-28YY
72017-02-12Solo Sunday Century109.50 miles0 feetpersonalstandard2017-07-28YY
82017-02-19Solo Sunday Century113.50 miles0 feetpersonalstandard2017-07-28YY
92017-02-26Sunday Recon w/SWCC124.10 miles0 feetpersonalstandard2017-07-28YY
102017-03-12Sunday Century Ride w/SWCC102.50 miles0 feetpersonalstandard2017-07-28YY
112017-03-25Texas RAAM 200 Challenge214.60 miles12 feetorganizedstandard2017-07-28YY
122017-04-08Bessie's Creek 6 Hr Race106.20 miles0 feetorganizedstandard2017-07-28YY
132017-04-15Solo Saturday Century107.80 miles0 feetpersonalstandard2017-07-28YY
142017-04-22Texas Ultra Spirit 6Hr Race119.50 miles0 feetorganizedstandard2017-07-28YY
152017-04-30Solo Sunday Century102.10 miles0 feetpersonalstandard2017-07-28YY
162017-05-06Bike For Mike + Endurance106.30 miles0 feetpersonalstandard2017-07-28YY
172017-06-04Solo Sunday Endurance119.40 miles0 feetpersonalstandard2017-07-27YY
182017-06-11Solo Sunday Century x1.4140.50 miles0 feetpersonalstandard2017-07-27YY
192017-06-18Solo Sunday Century x1.2120.50 miles0 feetpersonalstandard2017-07-27YY
202017-07-02Solo Sunday Century113.00 miles0 feetpersonalstandard2017-07-27YY
212017-07-08Clubride + Xtra Endurance101.40 miles0 feetpersonalstandard2017-07-27YY
222017-07-16Katy Flatlands Century + Xtra136.50 miles0 feetorganizedstandard2017-07-27YY
232017-07-22Solo Saturday Endurance195.50 miles0 feetpersonalstandard2017-07-27YY
242017-08-06Ride w/SWCC + Endurance Miles101.60 miles0 feetpersonalstandard2017-08-06YY
252017-08-13Solo Sunday Endurance119.50 miles0 feetpersonalstandard2017-08-15YY
262017-08-20Solo Sunday Endurance ITT129.00 miles0 feetpersonalstandard2017-08-21YY
272017-08-31Solo Thursday Century - Endurance103.10 miles0 feetpersonalstandard2017-08-31YY
282017-09-02Ride w/SWCC + Endurance Miles103.80 miles0 feetpersonalstandard2017-09-03YY
292017-09-08Solo Friday Century107.50 miles0 feetpersonalstandard2017-09-09YY
302017-09-10Ride w/SWCC + TT Miles101.10 miles0 feetpersonalstandard2017-09-15YY
312017-09-17Ride w/SWCC + Xtra Endurance Miles100.70 miles0 feetpersonalstandard2017-09-21YY
322017-09-22Solo Friday Century103.60 miles0 feetpersonalstandard2017-09-27YY
332017-10-01Sunday Century - SWCC Ride + Endurance107.40 miles0 feetpersonalstandard2017-10-05YY
342017-10-08Sunday Century Endurance - Solo + w/SWCC107.70 miles0 feetpersonalstandard2017-10-08YY
352017-10-29Solo Sunday Endurance in Z2109.90 miles0 feetpersonalstandard2017-10-30YY
362017-11-05Endurance Ride w/SWCC + Solo103.00 miles0 feetpersonalstandard2017-11-07YY
372017-11-12Super Strava Sunday w/SWCC102.50 miles0 feetpersonalstandard2017-11-13YY
382017-11-17Solo Friday Century Endurance120.30 miles0 feetpersonalstandard2017-11-18YY
392017-11-19SWCC Super Strava Sentury104.90 miles0 feetpersonalstandard2017-11-20YY
402017-11-24Black Friday Century105.00 miles0 feetpersonalstandard2017-11-27YY
412017-11-26Solo Sunday Century - BC Loops113.50 miles0 feetpersonalstandard2017-11-27YY
422017-12-01Friday Century w/SWCC101.50 miles0 feetpersonalstandard2017-12-01YY
432017-12-03Super Strava Sunday Sentury115.20 miles0 feetpersonalstandard2017-12-03YY
442017-12-10Solo Sunday Sentury Endurance107.60 miles0 feetpersonalstandard2017-12-10YY
452017-12-14Solo Friday Chilly Century109.00 miles0 feetpersonalstandard2017-12-15YY
462017-12-17Super Strava Sentury in Solitude103.20 miles0 feetpersonalstandard2017-12-17YY
472017-12-22Century Ride w/SWCC Power Group106.60 miles0 feetpersonalstandard2017-12-22YY
482017-12-24Sunday Sentury w/SWCC+Endurance Miles101.90 miles0 feetpersonalstandard2017-12-26YY
492017-12-26Cold and Rainy Endurance Ride92.50 miles0 feetpersonalstandard2017-12-26YY
502017-12-29Century Rde w/SWCC Hard Men110.10 miles0 feetpersonalstandard2017-12-29YY
512017-12-31NYE Solo Century114.00 miles0 feetpersonalstandard2017-12-31YY